Погода в Хейнола

Финляндия     61°12′21″N   26°02′23″E
темп.,
°C
ветер,
м/с
пор.,
м/с
влажн.,
%
обл.,
%
осадки,
мм/ч
давл.,
гПа
погр.,
м
11 мая, вт
вт1100:00+12ююз4167989 0.0 1016522
03:00+11ю41486100 0.0 1017425
06:00+11ю4139293 0.0 1017370
09:00+15ю5127670 0.0 1018548
12:00+20ю6957100 0.0 1018985
15:00+21ююз695212 0.0 10181343
18:00+22ююз59525 0.0 10181532
21:00+16ююв38725 0.0 1019209
12 мая, ср
ср1200:00+11ююв278518 0.0 1020134
03:00+11ююв398895 0.0 1020199
06:00+11ююв398592 0.0 1021214
09:00+16ююв4762100 0.0 1021428
12:00+20ююв583716 0.0 10201072
15:00+21ююв583861 0.0 10201223
18:00+20ю474738 0.0 10191289
21:00+16юв267217 0.0 1019121
13 мая, чт
чт1300:00+13юв278520 0.0 1019137
03:00+12ююв25880 0.0 101895
06:00+13вюв23840 0.0 101766
09:00+19вюв366137 0.0 1016479
12:00+23вюв474452 0.0 10142364
15:00+21юв475134 0.1 10141433
18:00+19ююв565439 0.1 10131476
21:00+15юв24660 0.1 101383
14 мая, пт
пт1400:00+12вюв11734 0.0 101210
03:00+11ссв2280100 0.0 101121
06:00+12юв2481100 0.1 1010200
09:00+10з2697100 5.9 1009291
12:00+11ю3897100 5.4 1010527
15:00+15ю466948 6.0 10101354
18:00+15ююв4659100 0.1 10101452
21:00+11юв378698 0.1 1011387
15 мая, сб
сб1500:00+10вюв129059 0.0 101055
03:00+10всв229299 0.0 100951
06:00+10св239084 0.0 100881
09:00+15всв2371100 0.0 1007362
12:00+15в1269100 0.0 1007355
15:00+21ссв115137 0.0 10051335
18:00+19сз225755 0.2 1004616
21:00+14сз238475 1.1 100450